Time,TemperatureF,DewpointF,PressureIn,WindDirection,WindDirectionDegrees,WindSpeedMPH,WindSpeedGustMPH,Humidity,HourlyPrecipIn,Conditions,Clouds,dailyrainin,SoftwareType,DateUTC
2013-03-12 00:00:00,47.4,46.3,29.66,South,180,8.0,19.0,96,0.00,,,-99.99,WeatherLink 5.6,2013-03-12 04:00:00,
2013-03-12 00:30:00,47.3,46.2,29.66,South,180,3.0,11.0,96,0.00,,,-99.99,WeatherLink 5.6,2013-03-12 04:30:00,
2013-03-12 01:00:00,47.4,46.3,29.65,South,180,3.0,13.0,96,0.00,,,-99.99,WeatherLink 5.6,2013-03-12 05:00:00,
2013-03-12 01:30:00,47.4,46.3,29.65,SSW,202,1.0,7.0,96,0.00,,,-99.99,WeatherLink 5.6,2013-03-12 05:30:00,
2013-03-12 02:00:00,44.1,42.8,29.67,NW,315,6.0,19.0,95,0.05,,,-99.99,WeatherLink 5.6,2013-03-12 06:00:00,
2013-03-12 02:30:00,43.1,42.0,29.67,NW,315,7.0,15.0,96,0.06,,,-99.99,WeatherLink 5.6,2013-03-12 06:30:00,
2013-03-12 03:00:00,41.7,40.6,29.67,NW,315,6.0,15.0,96,0.04,,,-99.99,WeatherLink 5.6,2013-03-12 07:00:00,
2013-03-12 03:30:00,39.3,38.3,29.68,NW,315,7.0,19.0,96,0.05,,,-99.99,WeatherLink 5.6,2013-03-12 07:30:00,
2013-03-12 04:00:00,38.0,37.0,29.69,NW,315,7.0,14.0,96,0.03,,,-99.99,WeatherLink 5.6,2013-03-12 08:00:00,
2013-03-12 04:30:00,36.7,35.7,29.69,NW,315,6.0,16.0,96,0.06,,,-99.99,WeatherLink 5.6,2013-03-12 08:30:00,
2013-03-12 05:00:00,35.4,34.4,29.70,NW,315,8.0,15.0,96,0.07,,,-99.99,WeatherLink 5.6,2013-03-12 09:00:00,
2013-03-12 05:10:00,34.1,33.1,29.74,NW,315,5.0,12.0,96,0.03,,,-99.99,WeatherLink 5.6,2013-03-12 09:10:00,
2013-03-12 05:40:00,32.9,31.9,29.75,NW,315,9.0,17.0,96,0.01,,,-99.99,WeatherLink 5.6,2013-03-12 09:40:00,
2013-03-12 06:10:00,32.0,31.0,29.77,NW,315,8.0,17.0,96,0.00,,,-99.99,WeatherLink 5.6,2013-03-12 10:10:00,
2013-03-12 06:40:00,32.1,31.1,29.78,NW,315,5.0,16.0,96,0.00,,,-99.99,WeatherLink 5.6,2013-03-12 10:40:00,
2013-03-12 07:10:00,31.8,30.8,29.78,NW,315,4.0,11.0,96,0.00,,,-99.99,WeatherLink 5.6,2013-03-12 11:10:00,
2013-03-12 07:40:00,31.8,30.5,29.79,NW,315,4.0,13.0,95,0.00,,,-99.99,WeatherLink 5.6,2013-03-12 11:40:00,
2013-03-12 08:10:00,31.5,30.5,29.81,NW,315,7.0,15.0,96,0.00,,,-99.99,WeatherLink 5.6,2013-03-12 12:10:00,
2013-03-12 08:40:00,31.7,30.7,29.82,NW,315,7.0,17.0,96,0.00,,,-99.99,WeatherLink 5.6,2013-03-12 12:40:00,
2013-03-12 09:10:00,31.8,30.8,29.83,NW,315,3.0,11.0,96,0.00,,,-99.99,WeatherLink 5.6,2013-03-12 13:10:00,
2013-03-12 09:40:00,32.0,31.0,29.84,NW,315,2.0,10.0,96,0.00,,,-99.99,WeatherLink 5.6,2013-03-12 13:40:00,
2013-03-12 10:10:00,32.5,31.5,29.84,NW,315,1.0,5.0,96,0.00,,,-99.99,WeatherLink 5.6,2013-03-12 14:10:00,
2013-03-12 10:40:00,32.6,31.6,29.84,WNW,292,1.0,7.0,96,0.00,,,-99.99,WeatherLink 5.6,2013-03-12 14:40:00,
2013-03-12 11:10:00,31.9,30.6,29.85,NW,315,4.0,12.0,95,0.00,,,-99.99,WeatherLink 5.6,2013-03-12 15:10:00,
2013-03-12 11:40:00,32.4,30.9,29.85,NW,315,4.0,12.0,94,0.00,,,-99.99,WeatherLink 5.6,2013-03-12 15:40:00,
2013-03-12 12:10:00,33.9,31.8,29.86,WNW,292,3.0,11.0,92,0.00,,,-99.99,WeatherLink 5.6,2013-03-12 16:10:00,
2013-03-12 12:40:00,34.3,30.5,29.86,West,270,4.0,12.0,86,0.00,,,-99.99,WeatherLink 5.6,2013-03-12 16:40:00,
2013-03-12 13:10:00,35.5,31.4,29.87,NW,315,5.0,16.0,85,0.00,,,-99.99,WeatherLink 5.6,2013-03-12 17:10:00,
2013-03-12 13:40:00,36.4,31.7,29.87,WNW,292,7.0,18.0,83,0.00,,,-99.99,WeatherLink 5.6,2013-03-12 17:40:00,
2013-03-12 14:10:00,36.5,31.8,29.86,WNW,292,3.0,13.0,83,0.00,,,-99.99,WeatherLink 5.6,2013-03-12 18:10:00,
2013-03-12 14:40:00,39.3,34.3,29.86,NW,315,3.0,12.0,82,0.00,,,-99.99,WeatherLink 5.6,2013-03-12 18:40:00,
2013-03-12 15:10:00,40.0,32.7,29.85,WNW,292,4.0,16.0,75,0.00,,,-99.99,WeatherLink 5.6,2013-03-12 19:10:00,
2013-03-12 15:40:00,41.3,34.3,29.85,WNW,292,5.0,15.0,76,0.00,,,-99.99,WeatherLink 5.6,2013-03-12 19:40:00,
2013-03-12 16:10:00,42.6,34.2,29.84,NW,315,4.0,14.0,72,0.00,,,-99.99,WeatherLink 5.6,2013-03-12 20:10:00,
2013-03-12 16:40:00,41.9,34.2,29.85,NW,315,7.0,16.0,74,0.00,,,-99.99,WeatherLink 5.6,2013-03-12 20:40:00,
2013-03-12 17:10:00,41.9,33.5,29.85,NW,315,6.0,13.0,72,0.00,,,-99.99,WeatherLink 5.6,2013-03-12 21:10:00,
2013-03-12 17:40:00,41.7,32.6,29.87,NW,315,6.0,15.0,70,0.00,,,-99.99,WeatherLink 5.6,2013-03-12 21:40:00,
2013-03-12 18:10:00,40.8,31.4,29.88,NW,315,7.0,16.0,69,0.00,,,-99.99,WeatherLink 5.6,2013-03-12 22:10:00,
2013-03-12 18:40:00,40.3,31.3,29.89,NW,315,6.0,14.0,70,0.00,,,-99.99,WeatherLink 5.6,2013-03-12 22:40:00,
2013-03-12 19:10:00,39.6,30.6,29.90,NW,315,1.0,12.0,70,0.00,,,-99.99,WeatherLink 5.6,2013-03-12 23:10:00,
2013-03-12 19:40:00,38.0,29.4,29.92,NW,315,1.0,9.0,71,0.00,,,-99.99,WeatherLink 5.6,2013-03-12 23:40:00,
2013-03-12 20:10:00,37.8,29.2,29.92,WNW,292,2.0,10.0,71,0.00,,,-99.99,WeatherLink 5.6,2013-03-13 00:10:00,
2013-03-12 20:40:00,36.9,29.1,29.93,WNW,292,1.0,10.0,73,0.00,,,-99.99,WeatherLink 5.6,2013-03-13 00:40:00,
2013-03-12 22:00:00,36.6,28.8,29.93,WNW,292,0.0,5.0,73,0.00,,,-99.99,WeatherLink 5.6,2013-03-13 02:00:00,
2013-03-12 22:30:00,36.5,28.7,29.94,WNW,292,0.0,1.0,73,0.00,,,-99.99,WeatherLink 5.6,2013-03-13 02:30:00,
2013-03-12 23:00:00,36.3,28.5,29.94,WNW,292,0.0,6.0,73,0.00,,,-99.99,WeatherLink 5.6,2013-03-13 03:00:00,
2013-03-12 23:30:00,35.8,28.3,29.94,North,-999,0.0,0.0,74,0.00,,,-99.99,WeatherLink 5.6,2013-03-13 03:30:00,